Preview of NWS' New Version of Forecast
This preview is not operational and should not be used for support decisions.
Latest weather observations around

Alabaster, Shelby County Airport (KEET)

Using International System of Units (Switch to English Units)
Date/ Time (CDT) Wind (kph) Vis. (km) Weather Sky Cond. Temp (°C) Rel. Humidity Wind Chill (°C) Heat Index (°C) Pressure Precip. (cm)
Air Dwpt 6 hour Altimeter (hPa) Sea level (hPa) 1 hr 3 hr 6 hr
Max Min
May 26 02:53 S 8 12.87 Mostly Cloudy BKN004 22 21     96%   22 1012.9 1012.4      
May 26 02:51 S 8 12.87 Mostly Cloudy BKN004 22 21     94%   23 1012.9        
May 26 02:22 S 5 14.48 Partly Cloudy SCT005 22 21     96%   22 1013.2        
May 26 01:53 S 8 12.87 Mostly Clear FEW080 22 21     93%   23 1013.2 1012.6      
May 26 01:42 S 5 12.87 Mostly Cloudy SCT012 BKN080 22 21     93%   23 1013.2        
May 26 01:03 Calm 11.27 Mostly Cloudy BKN013 22 22     97%   23 1013.6        
May 26 00:53 Calm 9.66 Fog/Mist SCT013 22 22     97%   23 1013.9 1013      
May 26 00:33 Calm 9.66 Fog/Mist SCT002 22 22     97%   23 1013.9        
May 26 00:20 S 5 4.83 Fog/Mist BKN002 22 22     97%   23 1013.9        
May 26 00:05 Calm 2.82 Fog/Mist OVC002 22 22     97%   23 1014.2        
May 25 23:53 Calm 8.05 Fog/Mist OVC002 23 22     94%   24 1014.2 1013.4      
May 25 22:53 Calm 9.66 Fog/Mist BKN004 22 21     93%   23 1014.2 1013.4      
May 25 22:49 Calm 9.66 Fog/Mist SCT004 22 22     100%   23 1014.2        
May 25 21:53 Calm 16.09 Mostly Cloudy BKN110 23 22     94%   24 1014.9 1014.1      
May 25 20:53 Calm 11.27 Mostly Cloudy FEW050 FEW075 BKN110 23 22     96%   24 1014.9 1014.1      
May 25 19:53 Calm 12.87 Clear CLR 23 22     94%   24 1014.2 1013.6      
May 25 18:53 Calm 16.09 Mostly Clear FEW011 24 22     85%   25 1013.6 1013     2
May 25 17:53 Calm 16.09 Clear CLR 24 22     85%   25 1013.2 1012.7      
May 25 16:53 Calm 16.09 Cloudy FEW034 BKN045 OVC095 24 20     79%   24 1013.6 1013 0    
May 25 15:53 Calm 16.09 Mostly Cloudy SCT038 BKN075 BKN090 22 20     90%   22 1014.9 1014.1 0 2  
May 25 15:33 Calm 11.27 Light Rain SCT075 OVC095 21 21     97%     1015.2   0    
May 25 15:12 5 4.83 Light Rain and Fog/Mist FEW026 SCT045 OVC095 21 20     93%     1015.9   0    
May 25 15:02 ENE 9 4.02 Rain and Fog/Mist FEW026 BKN095 OVC110 21 19     93%     1015.9   0    
May 25 14:53 5 4.83 Rain and Fog/Mist BKN100 OVC120 21 20     93%     1016.3 1015.5 0    
May 25 14:42 N 5 6.44 Thunderstorms and Rain and Fog/Mist FEW060 BKN100 OVC120 21 19     93%     1015.9   0    
May 25 14:34 Calm 4.02 Thunderstorms and Rain and Fog/Mist SCT065 BKN100 OVC120 21 20     96%     1015.9   0    
May 25 14:16 WNW 13 2.82 Thunderstorms and Rain and Fog/Mist SCT060 BKN080 OVC100 21 19     90%     1015.9   0    
May 25 13:58 S 17 4.83 Thunderstorms and Rain SCT031 SCT040 OVC100 22 19     84%   22 1015.6   0    
May 25 13:53 SSE 17 2.01 Thunderstorms and Rain and Fog/Mist BKN033 BKN100 22 19     87%   22 1015.2 1014.5 2    
May 25 13:48 ESE 13 0.8 Thunderstorms and Fog BKN031 22 20     88%   23 1015.2   2    
May 25 13:35   0.4 Thunderstorms and Heavy Rain and Fog SCT015 BKN029 OVC038 24 22     88%   25 1015.6   1    
May 25 13:29   1.21 Heavy Rain FEW023 BKN029 OVC037 25 21     79%   26 1015.2   0    
May 25 13:24 SE 18 2.82 Heavy Rain FEW023 OVC030 26 22     79%   28 1015.6   0    
May 25 13:10 Calm 16.09 Clear   28 21     67%   30 1015.2        
May 25 12:53 5 16.09 Clear   28 21     65%   31 1015.6 1014.9      
May 25 11:53 Calm 14.48 Clear   28 22     69%   30 1016.6 1015.8      
May 25 10:53 Calm 16.09 Clear   27 22     74%   29 1017.3 1016.5      
May 25 09:53 ENE 5 16.09 Clear   26 21     72%   27 1017.6 1016.8      
May 25 08:53 E 5 14.48 Clear   25 21     77%   26 1017.6 1016.9      
May 25 07:53 Calm 11.27 Clear   23 21     87%   23 1017.6 1016.9      
May 25 06:53 Calm 8.05 Fog/Mist FEW043 BKN070 21 20     93%     1017.6 1017.1      
May 25 05:53 Calm 6.44 Fog/Mist CLR 20 19     93%     1017.3 1016.5      
May 25 05:41 Calm 11.27 Partly Cloudy SCT001 19 19     97%     1017.3        
May 25 05:09 Calm 6.44 Fog/Mist BKN001 20 19     96%     1016.9        
May 25 04:53 Calm 6.44 Fog/Mist SCT002 20 19     96%     1016.9 1016.2      
May 25 04:28 Calm 4.83 Fog/Mist FEW003 20 19     96%     1016.9        
May 25 04:18 Calm 2.82 Fog/Mist SCT003 BKN065 20 19     96%     1016.9        
May 25 04:02 Calm 8.05 Fog/Mist SCT001 SCT055 20 19     96%     1016.6        
May 25 03:53 Calm 8.05 Fog/Mist BKN001 BKN060 20 19     96%     1016.9 1016.1      
May 25 03:36 Calm 8.05 Fog/Mist BKN001 BKN048 21 19     93%     1016.9        
May 25 02:53 Calm 8.05 Fog/Mist FEW001 21 19     93%     1016.9 1016.2      
May 25 02:27 Calm 9.66 Fog/Mist FEW002 OVC047 21 20     96%     1016.9        
May 25 01:53 Calm 8.05 Fog/Mist FEW049 21 19     93%     1017.3 1016.7      
May 25 01:44 Calm 8.05 Fog/Mist FEW001 20 19     96%     1017.3        
May 25 00:53 Calm 8.05 Fog/Mist CLR 21 20     96%     1018 1017.3      
May 24 23:53 Calm 11.27 Clear CLR 21 21     97%     1018.6 1017.7      
May 24 22:53 Calm 11.27 Mostly Clear FEW120 22 20     90%   22 1019 1018.1      
May 24 21:53 Calm 11.27 Partly Cloudy SCT120 22 21     93%   22 1019 1018.4      
May 24 20:53 Calm 16.09 Clear CLR 22 20     87%   23 1017.6 1016.8      
May 24 19:53 Calm 16.09 Clear CLR 22 21     93%   22 1016.9 1016      
May 24 18:53 NW 9 16.09 Clear CLR 22 20     87%   23 1016.9 1016.4     0
May 24 17:53 WNW 8 16.09 Clear CLR 22 21     91%   23 1017.3 1016.5 0    
May 24 16:53 S 8 14.48 Light Rain FEW055 BKN090 BKN100 22 21     91%   23 1018 1017.2 0    
May 24 15:53 S 5 11.27 Light Rain OVC110 22 21     91%   23 1017.3 1016.7 0 0  
May 24 14:53 S 11 12.87 Light Rain FEW075 BKN095 OVC110 23 21     87%   23 1018 1017.4 0    
May 24 13:53 5 16.09 Clear CLR 24 21     84%   25 1018.6 1017.9 0    
May 24 12:53 Calm 12.87 Light Rain FEW085 OVC110 24 19     76%   24 1018.6 1018 0   0
May 24 11:53 NE 8 16.09 Thunderstorms BKN100 BKN120 28 18     56%   29 1019 1018.1      
May 24 11:48 8 16.09 Mostly Cloudy FEW041 BKN100 BKN120 28 19     58%   29 1019        
May 24 10:53 Calm 16.09 Partly Cloudy SCT026 29 22     65%   33 1019.3 1018.6      
May 24 09:53 Calm 16.09 Mostly Cloudy BKN070 28 22     70%   31 1019.7 1018.7      
May 24 08:53 Calm 16.09 Clear CLR 27 22     74%   30 1019.7 1018.9      
May 24 07:53 NW 5 16.09 Clear CLR 24 22     85%   25 1019.3 1018.6      
May 24 06:53 Calm 14.48 Clear CLR 22 21     93%   23 1019 1018.2      
May 24 05:53 Calm 14.48 Clear CLR 21 20     96%     1018.6 1017.8      
May 24 04:53 5 12.87 Clear CLR 21 20     93%     1018 1017.4      
May 24 03:53 Calm 14.48 Clear CLR 21 20     93%     1018 1017.1      
May 24 02:53 Calm 12.87 Clear CLR 22 21     93%   22 1017.6 1016.9      
May 24 01:53 Calm 14.48 Partly Cloudy SCT055 22 21     96%   22 1018 1017.3      
May 24 00:53 Calm 16.09 Mostly Clear FEW055 22 21     93%   23 1018.3 1017.5      
May 23 23:53 Calm 16.09 Clear CLR 22 21     93%   23 1018.6 1017.8      
May 23 22:53 Calm 16.09 Clear CLR 23 22     91%   24 1019 1018.3      
May 23 21:53 Calm 16.09 Clear CLR 23 22     91%   24 1019 1018.3      
May 23 20:53 Calm 16.09 Clear CLR 24 22     90%   25 1018.3 1017.5      
May 23 19:53 Calm 12.87 Clear CLR 25 22     84%   26 1017.6 1016.8      
May 23 18:53 WNW 8 16.09 Clear CLR 26 23     82%   28 1016.9 1016.3      
May 23 17:53 Calm 16.09 Mostly Clear FEW028 27 23     82%   29 1016.9 1016.1      
May 23 16:53 Calm 16.09 Clear CLR 28 23     72%   32 1017.3 1016.4      
May 23 15:53 W 5 16.09 Clear CLR 28 22     72%   30 1018 1017.2      
May 23 14:53 Calm 16.09 Clear CLR 27 22     72%   29 1018 1017.3      
May 23 13:53 ESE 5 16.09 Clear CLR 28 21     67%   30 1018.3 1017.4      
May 23 13:07 E 8 16.09 Clear CLR 28 22     69%   30 1018.3        
May 23 12:53 Calm 16.09 Clear CLR 28 21     65%   30 1018.6 1018      
May 23 12:25 Calm 16.09 Clear CLR 28 22     67%   31 1019        
May 23 11:53 5 16.09 Mostly Cloudy FEW022 SCT030 BKN050 28 22     69%   30 1019 1018.3      
May 23 10:53 Calm 16.09 Mostly Clear FEW015 27 23     77%   30 1019.7 1018.8      
May 23 10:20 Calm 14.48 Partly Cloudy SCT008 25 22     84%   26 1019.7        
May 23 09:53 Calm 11.27 Mostly Cloudy BKN007 25 22     84%   26 1019.7 1019      
May 23 09:50 Calm 9.66 Fog/Mist BKN007 24 22     89%   25 1019.7        
May 23 09:34 Calm 6.44 Fog/Mist BKN005 24 22     88%   25 1019.7        
May 23 09:25 Calm 4.83 Fog/Mist BKN003 OVC007 23 22     94%   24 1019.7        
May 23 09:14 5 3.22 Fog/Mist OVC002 23 22     94%   24 1019.7        
May 23 09:00 Calm 2.41 Fog/Mist OVC002 23 22     94%   24 1020        
May 23 08:53 Calm 3.22 Fog/Mist OVC002 23 22     94%   24 1019.7 1019.1      
May 23 08:45 Calm 2.01 Fog/Mist OVC002 22 22     97%   23 1019.7        
May 23 08:25 Calm 1.21 Fog/Mist OVC002 22 22     100%   23 1019.3        
May 23 07:53 Calm 0.4 Fog VV002 22 21     96%   22 1019.3 1018.5      
May 23 06:53 Calm 0.4 Fog VV001 22 21     96%   22 1018.6 1017.9      
May 23 06:16 Calm 0.4 Fog VV002 21 21     100%     1018.3        
May 23 06:06 Calm 0.8 Fog OVC002 21 21     97%     1018.3        
May 23 05:56 Calm 2.82 Fog/Mist OVC002 21 21     97%     1018        
May 23 05:53 Calm 4.83 Fog/Mist OVC002 21 21     97%     1018 1017.3      
May 23 05:27 Calm 11.27 Cloudy OVC002 21 21     97%     1017.6        
May 23 05:20 Calm 4.02 Fog/Mist OVC002 21 21     97%     1017.6        
May 23 05:13 Calm 0.8 Fog VV002 21 21     97%     1017.6        
May 23 05:05 S 5 2.41 Fog/Mist OVC001 21 21     97%     1017.3        
May 23 05:02 Calm 4.83 Fog/Mist BKN001 21 21     97%     1017.3        
May 23 04:53 Calm 4.02 Fog/Mist BKN001 21 21     97%     1017.3 1016.6      
May 23 03:53 Calm 11.27 Cloudy OVC001 21 21     97%     1016.6 1016      
May 23 03:32 Calm 4.83 Fog/Mist OVC001 22 21     96%   22 1016.6        
May 23 03:24 Calm 2.82 Fog/Mist OVC001 22 21     96%   22 1016.6        
May 23 03:18 Calm 4.83 Fog/Mist OVC001 22 21     96%   22 1016.6        
May 23 03:13 Calm 2.82 Fog/Mist OVC001 22 21     96%   22 1016.6        
May 23 02:53 Calm 0.8 Fog VV002 22 21     96%   22 1016.6 1015.9      
May 23 02:42 Calm 1.21 Fog/Mist VV002 22 21     96%   22 1016.6        
May 23 02:29 Calm 2.41 Fog/Mist OVC001 22 21     96%   22 1016.9        
May 23 02:07 Calm 0.8 Fog VV001 22 21     96%   22 1016.6        
May 23 01:58 Calm 2.82 Fog/Mist BKN002 22 21     96%   22 1016.6        
May 23 01:53 Calm 11.27 Partly Cloudy SCT002 22 21     96%   22 1016.6 1015.7      
May 23 00:53 Calm 12.87 Mostly Clear FEW001 22 21     96%   22 1016.9 1016.3      
May 23 00:39 Calm 9.66 Fog/Mist FEW001 22 21     93%   23 1017.3        
May 22 23:53 Calm 14.48 Clear CLR 22 21     93%   23 1017.6 1016.9      
May 22 22:53 Calm 12.87 Clear CLR 23 22     94%   24 1018 1017.1      
May 22 21:53 Calm 16.09 Clear CLR 22 22     97%   23 1017.6 1016.8      
May 22 20:53 Calm 16.09 Clear CLR 23 22     94%   24 1016.9 1016.1      
May 22 19:53 Calm 16.09 Clear CLR 24 22     90%   25 1016.3 1015.6      
May 22 18:53 Calm 16.09 Mostly Clear FEW110 25 22     82%   26 1015.9 1015.2     0
May 22 17:53 Calm 16.09 Partly Cloudy FEW075 SCT100 26 22     79%   26 1015.6 1015 0    
May 22 17:44 Calm 16.09 Partly Cloudy FEW075 FEW095 SCT110 25 21     79%   26 1015.6   0    
May 22 17:29 Calm 16.09 Mostly Cloudy FEW034 SCT095 BKN110 24 22     85%   25 1015.6   0    
May 22 15:53 5 16.09 Mostly Clear FEW060 27 20     65%   29 1015.6 1014.8      
May 15 03:53 Calm 14.48 Clear CLR 22 19     87%   22 1015.2 1014.4      
May 14 10:53 9 16.09 Clear CLR 32 18     44%   32 1017.6 1016.8      
May 14 04:53 Calm 11.27 Clear   19 18     93%     1016.6 1015.8      
May 13 22:53 Calm 12.87 Clear CLR 23 20     84%   23 1018 1017.1      
May 13 08:53 Calm 14.48 Clear CLR 27 17     54%   27 1021.3 1020.6      
May 12 02:53 Calm 12.87 Clear CLR 18 17     90%     1019 1018.4      
May 11 16:53 WSW 8 16.09 Clear CLR 31 13     35%   30 1018 1017.1      
Jun 12 05:53 Calm 16.09 Mostly Clear FEW023 22 22     97%   23 1020.7 1020      
Jun 11 18:53 SSE 8 16.09 Clear CLR 30 21     57%   32 1018.6 1017.7      
Jun 11 11:53 SE 9 16.09 Clear CLR 29 19     53%   31 1021 1020.3      
Jun 11 10:53 ESE 11 16.09 Mostly Clear FEW031 28 22     67%   31 1021.3 1020.5      
Jun 11 01:53 Calm 16.09 Clear   22 18     81%   22 1018.6 1017.9      
Jun 10 03:53 Calm 16.09 Mostly Cloudy BKN060 BKN075 19 18     96%     1016.3 1015.4      
Jun 09 21:53 Calm 16.09 Clear CLR 21 19     87%     1015.2 1014.7      
Jun 08 19:53 Calm 16.09 Clear CLR 22 18     76%   22 1011.5 1010.9      
Jun 07 07:53 N 9 16.09 Clear CLR 21 16     71%     1009.8 1009.2      
Jun 06 08:20 NNW 8 4.83 Light Rain and Fog/Mist SCT006 OVC017 22 22     100%   23 1009.5   1    
Jun 06 07:28 Calm 8.05 Light Rain and Fog/Mist BKN013 BKN017 OVC043 22 22     100%   23 1009.5   0    
Jun 06 06:10 NW 9 2.82 Rain and Fog/Mist BKN013 BKN020 OVC024 21 21     100%     1009.5   1    
Jun 06 05:05 Calm 4.83 Rain and Fog/Mist FEW031 BKN042 OVC070 22 22     100%   23 1008.8   0    
Jun 05 21:53 Calm 16.09 Clear   22 22     100%   23 1010.2 1009.2   0